Location: Newark
(34.3481°N, 134.0494°E)
Time: 04:12:06
(UTC+00:00)

Vanguard 3 - Pass Details

Date: 03 February 2020
Orbit: 508 x 3263 km, 33.3° (Epoch: 16 February)

Event Time Altitude Azimuth Distance (km) Brightness Sun altitude
Rises 02:58:42 0° 197° (SSW) 4,807 11.9 38.8°
Reaches altitude 10° 03:02:11 10° 184° (S) 4,210 12.0 38.8°
Maximum altitude 03:11:48 27° 132° (SE) 3,903 11.5 38.9°
Drops below altitude 10° 03:25:04 10° 84° (E) 5,963 11.6 38.9°
Sets 03:31:14 0° 75° (ENE) 7,177 11.8 38.9°
